Regional Weather Roundup
Issued by NWS

Home | Current Version | Previous Version | Graphics & Text | Print | Product List | Glossary On
Versions: 1 2 3 4 5 6 7 8 9 10 11 12 13 14 15 16 17 18 19 20 21 22 23 24 25 26 27 28 29 30 31 32 33 34 35 36 37 38 39 40 41 42 43 44 45 46 47 48 49 50
000
ASUS43 KMPX 172210
RWRMN
WEATHER ROUNDUP FOR MINNESOTA
NATIONAL WEATHER SERVICE TWIN CITIES/CHANHASSEN MN
400 PM CST SAT FEB 17 2018


NOTE: "FAIR" INDICATES FEW OR NO CLOUDS BELOW 12,000 FEET WITH NO
SIGNIFICANT WEATHER AND/OR OBSTRUCTIONS TO VISIBILITY. N/A MEANS
CURRENT SKY AND/OR WEATHER CONDITIONS ARE NOT AVAILABLE.

MNZ060>063-068>070-172300-
   Twin Cities Metro

CITY           SKY/WX    TMP DP  RH WIND       PRES   REMARKS
TWIN CITIES    PTSUNNY   37  18  46 W20G30    29.91
ST PAUL        PTSUNNY   36  18  48 W15G24    29.92
CRYSTAL        FAIR      34  15  46 W15G28    29.90  WCI  24
BLAINE         MOSUNNY   37  18  44 W15G22    29.89R
LAKEVILLE      FAIR      34  19  55 W13       29.91R WCI  25
EDEN PRAIRIE   FAIR      36  16  44 NW15G26   29.90R
SOUTH ST PAUL  FAIR      37  18  46 NW9G18    29.90S
LAKE ELMO      PTSUNNY   36  19  51 W18       29.90R
$$
MNZ001>005-007-008-013>017-022>024-027-028-172300-
   Northwest Minnesota

CITY           SKY/WX    TMP DP  RH WIND       PRES   REMARKS
BEMIDJI        PTSUNNY   19   6  57 W17G24    29.88R WCI   4
HALLOCK        PTSUNNY   21   9  58 NW18G28   29.90R WCI   6
WARROAD        FAIR      18   3  53 W17G26    29.85R WCI   2
THIEF RVR FALL FAIR      19   7  59 W12       29.92S WCI   7
CROOKSTON      FAIR      21   9  58 NW16      29.95S WCI   7
FOSSTON        FAIR      21   5  49 W16       29.92R WCI   7
DETROIT LAKES  FAIR      21   9  58 NW18G25   29.94S WCI   6
MOORHEAD       FAIR      23   7  50 W20       29.99R WCI   8
PARK RAPIDS    FAIR      22   8  55 W20       29.88R WCI   7
MAHNOMEN       FAIR      21   9  59 NW14G22   29.94R WCI   8
$$
MNZ006-009>011-018-025>026-172300-
   North Central Minnesota

CITY           SKY/WX    TMP DP  RH WIND       PRES   REMARKS
BAUDETTE       FAIR      18   3  52 W17G25    29.82R WCI   3
FLAG ISLAND    FAIR      16   0  48 W25       29.81R WCI  -3
INTL FALLS     FAIR      20   3  48 W16G23    29.79R WCI   6
WASKISH        FAIR      18   7  62 W15       29.86R WCI   3
BIG FORK       PTSUNNY   21   7  53 W9G18     29.83R WCI  11
LONGVILLE      FAIR      25   5  42 W13G18    29.87R WCI  13
GRAND RAPIDS   FAIR      22  11  62 NW17G23   29.85R WCI   8
CRANE LAKE     FAIR      21  -2  35 NW5       29.79R WCI  15
ORR            PTSUNNY   21   1  42 W10G23    29.76R WCI  10
COOK           CLOUDY    21   9  58 W13G20    29.80R WCI   9
WALKER         FAIR      22   4  46 W15G25    29.87R WCI   9
$$
MNZ012-019>021-037-172300-
   Northeast Minnesota

CITY           SKY/WX    TMP DP  RH WIND       PRES   REMARKS
DULUTH         FAIR      27  11  51 W22G29    29.79R WCI  13
ELY            PTSUNNY   21  10  63 W20G25    29.75R WCI   6
HIBBING        PTSUNNY   22   8  55 W12G17    29.81R WCI  10
EVELETH        FAIR     N/A N/A N/A W16G23    29.80R
DULUTH HARBOR  PTSUNNY   30  16  55 W21G26    29.84R WCI  17
TWO HARBORS    FAIR      30  14  51 W16G22    29.77R WCI  19
GRAND MARAIS     N/A     30  10  43 W15G23    29.74R WCI  19
G MARAIS ARPRT PTSUNNY   21   3  45 W9G20     29.68R WCI  11
$$
MNZ029>031-032-039>041-046>048-054>057-064-172300-
   West Central Minnesota

CITY           SKY/WX    TMP DP  RH WIND       PRES   REMARKS
FERGUS FALLS   FAIR      25   9  50 NW21      29.97R WCI  10
WHEATON        SUNNY     28   1  31 NW20G25   30.01R WCI  15
MORRIS         SUNNY     30   7  37 NW20      29.97R WCI  18
ALEXANDRIA     FAIR      26   6  42 NW20G26   29.94R WCI  12
ELBOW LAKE     FAIR      25   4  41 W20G30    29.97R WCI  10
WADENA         FAIR      21   7  53 W15G21    29.92R WCI   8
GLENWOOD       FAIR      28   9  43 NW21G29   29.95R WCI  15
APPLETON       MOSUNNY   34   7  32 NW18G28   29.98R WCI  23
BENSON         SUNNY     34   5  29 N21G26    29.98R WCI  22
ORTONVILLE     SUNNY     34   9  35 NW13G28   29.98R WCI  25
MADISON        SUNNY     37  12  35 NW21G29   29.99R
WILLMAR        FAIR      34   9  35 W20       29.98R WCI  22
$$
MNZ033>034-036-042>043-049>051-058-059-172300-
   Central Minnesota

CITY           SKY/WX    TMP DP  RH WIND       PRES   REMARKS
ST CLOUD       FAIR      31  12  45 NW26G33   29.91R WCI  17
SAUK CENTRE    FAIR      28   9  45 W18G26    29.93R WCI  15
PAYNESVILLE    FAIR      32  11  41 W21G28    29.94R WCI  20
AITKIN         FAIR      23  10  58 W10G16    29.86R WCI  12
PINE RIVER     FAIR      21   7  53 NW10G20   29.92R WCI  10
BRAINERD       FAIR      27  11  51 W14G23    29.89R WCI  16
STAPLES        FAIR      21   9  58 W15       29.92R WCI   8
LONG PRAIRIE   FAIR      27   9  46 W16G26    29.93R WCI  14
LITTLE FALLS   FAIR      28   5  37 NW15G21   29.92R WCI  17
LITCHFIELD     FAIR      34  12  40 W16G22    29.95R WCI  23
BUFFALO        FAIR      34  13  41 W16G24    29.93R WCI  24
MAPLE LAKE     FAIR      34  14  43 W16G24    29.93R WCI  24
HUTCHINSON     FAIR      36  15  42 W18G25    29.95R
$$
MNZ037-044-045-052-053-172300-
   East Central Minnesota

CITY           SKY/WX    TMP DP  RH WIND       PRES   REMARKS
PRINCETON      FAIR      36  10  35 W17G23    29.90R
MORA           FAIR      32  10  40 W17G26    29.89R WCI  21
CAMBRIDGE        N/A     34  18  51 NW14G21   29.90R WCI  24
RUSH CITY      FAIR      32  12  42 W12G23    29.88R WCI  23
MOOSE LAKE     FAIR      30  10  43 W13G22    29.83R WCI  20
HINCKLEY       FAIR      32  14  47 W14G21    29.86R WCI  22
CLOQUET        PTSUNNY   28   9  43 W18G24    29.81R WCI  16
MCGREGOR       CLOUDY    28  14  54 W13G22    29.85R WCI  18
$$
MNZ071>073-080-081-089-090-097-098-172300-
   Southwest Minnesota

CITY           SKY/WX    TMP DP  RH WIND       PRES   REMARKS
MONTEVIDEO     SUNNY     36  10  35 NW18G24   29.98R
GRANITE FALLS  MOSUNNY   37  15  40 W20G25    30.00R
CANBY          PTSUNNY   37  16  43 NW17G25   30.00R
MARSHALL       MOSUNNY   34  16  47 NW20      29.99R WCI  23
REDWOOD FALLS  MOSUNNY   36  16  44 NW15G22   29.97
OLIVIA         SUNNY     34  14  44 NW18G25   29.96R WCI  23
PIPESTONE      PTSUNNY   34  21  60 NW14G23   29.99R WCI  24
WINDOM         SUNNY     34  16  47 NW9       29.98R WCI  26
WORTHINGTON    SUNNY     33  23  66 W17       29.99R WCI  22
JACKSON        SUNNY     32  25  74 W14       29.98R WCI  22
TRACY          MOSUNNY   36  21  54 NW16G22   29.98R
SLAYTON        CLOUDY    34  22  62 NW18G28   29.99R WCI  23
$$
MNZ065>067-074>077-082>085-091>093-172300-
   South Central Minnesota

CITY           SKY/WX    TMP DP  RH WIND       PRES   REMARKS
MANKATO        FAIR      35  19  52 NW14      29.96R WCI  26
NEW ULM        SUNNY     34  19  55 W16       29.96R WCI  23
ST JAMES       SUNNY     34  21  60 W12       29.99R WCI  25
FAIRMONT       SUNNY     35  25  66 NW14      29.98R WCI  26
GLENCOE        FAIR      36  20  51 W21G28    29.93R
FARIBAULT      FAIR      36  21  55 W13       29.94R
OWATONNA       FAIR      34  25  69 W13       29.94R WCI  25
WASECA         FAIR      32  27  80 W10       29.96R WCI  24
ALBERT LEA     FAIR      32  23  69 W10G16    29.95R WCI  24
$$
MNZ078>079-086>088-094>096-172300-
   Southeast Minnesota

CITY           SKY/WX    TMP DP  RH WIND       PRES   REMARKS
ROCHESTER      FAIR      28  23  81 W14       29.93R WCI  17
RED WING       FAIR      32  21  64 W10       29.91S WCI  24
STANTON        FAIR      32  24  72 SW8       29.92R WCI  25
DODGE CENTER   FAIR      28  23  80 W9        29.93R WCI  20
WINONA         PTSUNNY   32  25  74 W7        29.93R WCI  26
AUSTIN         FAIR      30  23  74 W13G18    29.94R WCI  20
PRESTON        PTSUNNY   29  24  80 W15       29.94R WCI  18
$$
ABBREVIATIONS USED IN REMARKS
   TC - TEMPERATURES IN CELSIUS
  WCI - WIND CHILL INDEX
   HX - HEAT INDEX
  VSB - VISIBILITY
$$




USA.gov is the U.S. government's official web portal to all federal, state and local government web resources and services.